START_TIME,STEP,MOV.,M34,t_acc.,L5,t_acc.,L18,t_acc.,L14,t_acc.
1979-07-16 09:00:24.880 ,0,0,0.,12.0,0.,12.0,0.,12.0,0.,12.0
1979-07-16 09:00:36.880 ,0,0,0.,12.0,0.,12.0,0.,12.0,0.,12.0
1979-07-16 09:00:48.880 ,0,1,0.,12.0,0.,12.0,0.,12.0,0.,12.0
1979-07-16 09:01:00.880 ,0,1,0.,12.0,0.,12.0,0.,12.0,0.,12.0
1979-07-16 09:01:12.880 ,0,0,0.,12.0,0.,12.0,0.,12.0,0.,12.0
1979-07-16 09:01:24.880 ,0,0,0.,12.0,0.,12.0,0.,12.0,0.,12.0
1979-07-16 09:01:36.880 ,1,1,0.,12.0,0.,12.0,0.,12.0,0.,12.0
1979-07-16 09:01:48.880 ,1,1,0.,12.0,0.,12.0,0.,12.0,0.,12.0
1979-07-16 09:02:00.880 ,1,0,0.,12.0,0.,12.0,0.,12.0,0.,12.0
1979-07-16 09:02:12.880 ,1,0,0.,12.0,0.,12.0,0.,12.0,0.,12.0
1979-07-16 09:02:24.880 ,2,1,0.,12.0,0.,12.0,0.,12.0,0.,12.0
1979-07-16 09:02:36.880 ,2,1,0.,12.0,0.,12.0,0.,12.0,0.,12.0
1979-07-16 09:02:48.880 ,2,0,0.,12.0,0.,12.0,0.,12.0,0.,12.0
1979-07-16 09:03:00.880 ,2,0,0.,12.0,0.,12.0,0.,12.0,0.,12.0
1979-07-16 09:03:12.880 ,3,1,0.,12.0,0.,12.0,0.,12.0,0.,12.0
1979-07-16 09:03:24.880 ,3,1,0.,12.0,0.,12.0,0.,12.0,0.,12.0
1979-07-16 09:03:36.880 ,3,0,0.,12.0,0.,12.0,0.,12.0,0.,12.0
1979-07-16 09:03:48.880 ,3,0,0.,12.0,0.,12.0,0.,12.0,0.,12.0
1979-07-16 09:04:00.880 ,4,1,0.,12.0,0.,12.0,0.,12.0,0.,12.0
1979-07-16 09:04:12.880 ,4,1,0.,12.0,0.,12.0,0.,12.0,0.,12.0
1979-07-16 09:04:24.880 ,4,0,0.,12.0,0.,12.0,0.,12.0,0.,12.0
1979-07-16 09:04:36.880 ,4,0,0.,12.0,0.,12.0,0.,12.0,0.,12.0
1979-07-16 09:04:48.880 ,5,1,0.,12.0,0.,12.0,0.,12.0,0.,12.0
1979-07-16 09:05:00.880 ,5,1,0.,12.0,0.,12.0,0.,12.0,0.,12.0
1979-07-16 09:05:12.880 ,5,0,0.,12.0,0.,12.0,0.,12.0,0.,12.0
1979-07-16 09:05:24.880 ,5,0,0.,12.0,0.,12.0,0.,12.0,0.,12.0
1979-07-16 09:05:36.880 ,6,1,0.,12.0,0.,12.0,0.,12.0,0.,12.0
1979-07-16 09:05:48.880 ,6,1,0.,12.0,0.,12.0,0.,12.0,0.,12.0
1979-07-16 09:06:00.880 ,6,0,0.,12.0,0.,12.0,0.,12.0,0.,12.0
1979-07-16 09:06:12.880 ,6,0,0.,12.0,0.,12.0,0.,12.0,0.,12.0
1979-07-16 09:06:24.880 ,7,0,0.,12.0,0.,12.0,0.,12.0,0.,12.0
1979-07-16 09:06:36.880 ,7,0,0.,12.0,0.,12.0,0.,12.0,0.,12.0
1979-07-16 09:06:48.880 ,7,0,0.,12.0,0.,12.0,0.,12.0,0.,12.0
1979-07-16 09:07:00.880 ,7,0,0.,12.0,0.,12.0,0.,12.0,0.,12.0
1979-07-16 09:07:12.880 ,4,1,0.,12.0,0.,12.0,0.,12.0,0.,12.0
1979-07-16 09:07:24.880 ,4,1,0.,12.0,0.,12.0,0.,12.0,0.,12.0
1979-07-16 09:07:36.880 ,0,1,0.,12.0,0.,12.0,0.,12.0,0.,12.0
1979-07-16 09:07:48.880 ,0,1,0.,12.0,0.,12.0,0.,12.0,0.,12.0
1979-07-16 09:08:00.880 ,3,1,0.,12.0,0.,12.0,0.,12.0,0.,12.0
1979-07-16 09:08:12.880 ,3,1,0.,12.0,0.,12.0,0.,12.0,0.,12.0
1979-07-16 09:08:24.880 ,7,1,0.,12.0,0.,12.0,0.,12.0,0.,12.0
1979-07-16 09:08:36.880 ,7,1,0.,12.0,0.,12.0,0.,12.0,0.,12.0
1979-07-16 09:08:48.880 ,4,1,0.,12.0,0.,12.0,0.,12.0,0.,12.0
1979-07-16 09:09:00.880 ,4,1,0.,12.0,0.,12.0,0.,12.0,0.,12.0
1979-07-16 09:09:12.880 ,0,1,0.,12.0,0.,12.0,0.,12.0,0.,12.0
1979-07-16 09:09:24.880 ,0,1,0.,12.0,0.,12.0,0.,12.0,0.,12.0
1979-07-16 09:09:36.880 ,3,1,0.,12.0,0.,12.0,0.,12.0,0.,12.0
1979-07-16 09:09:48.880 ,3,1,0.,12.0,0.,12.0,0.,12.0,0.,12.0
1979-07-16 09:10:00.880 ,7,1,0.,12.0,0.,12.0,0.,12.0,0.,12.0
1979-07-16 09:10:12.880 ,7,1,0.,12.0,0.,12.0,0.,12.0,0.,12.0
1979-07-16 09:10:24.880 ,4,1,0.,12.0,0.,12.0,0.,12.0,0.,12.0
1979-07-16 09:10:36.880 ,4,1,0.,12.0,0.,12.0,0.,12.0,0.,12.0
1979-07-16 09:10:48.880 ,0,1,0.,12.0,0.,12.0,0.,12.0,0.,12.0
1979-07-16 09:11:00.880 ,0,1,0.,12.0,0.,12.0,0.,12.0,0.,12.0
1979-07-16 09:11:12.880 ,3,1,0.,12.0,0.,12.0,0.,12.0,0.,12.0
1979-07-16 09:11:24.880 ,3,1,0.,12.0,0.,12.0,0.,12.0,0.,12.0
1979-07-16 09:11:36.880 ,7,1,0.,12.0,0.,12.0,0.,12.0,0.,12.0
1979-07-16 09:11:48.880 ,7,1,0.,12.0,0.,12.0,0.,12.0,0.,12.0
1979-07-16 09:12:00.880 ,4,1,0.,12.0,0.,12.0,0.,12.0,0.,12.0
1979-07-16 09:12:12.880 ,4,1,0.,12.0,0.,12.0,0.,12.0,0.,12.0
1979-07-16 09:12:24.880 ,0,1,0.,12.0,0.,12.0,0.,12.0,0.,12.0
1979-07-16 09:12:36.880 ,0,1,0.,12.0,0.,12.0,0.,12.0,0.,12.0
1979-07-16 09:12:48.880 ,3,1,0.,12.0,0.,12.0,0.,12.0,0.,12.0
1979-07-16 09:13:00.880 ,3,1,0.,12.0,0.,12.0,0.,12.0,0.,12.0
1979-07-16 09:13:12.880 ,7,1,0.,12.0,0.,12.0,0.,12.0,0.,12.0
1979-07-16 09:13:24.880 ,7,1,0.,12.0,0.,12.0,0.,12.0,0.,12.0
1979-07-16 09:13:36.880 ,4,1,0.,12.0,0.,12.0,0.,12.0,0.,12.0
1979-07-16 09:13:48.880 ,4,1,0.,12.0,0.,12.0,0.,12.0,0.,12.0
1979-07-16 09:14:00.880 ,0,1,0.,12.0,0.,12.0,0.,12.0,0.,12.0
1979-07-16 09:14:12.880 ,0,1,0.,12.0,0.,12.0,0.,12.0,0.,12.0
1979-07-16 09:14:24.880 ,3,1,0.,12.0,0.,12.0,0.,12.0,0.,12.0
1979-07-16 09:14:36.880 ,3,1,0.,12.0,0.,12.0,0.,12.0,0.,12.0
1979-07-16 09:14:48.880 ,7,1,0.,12.0,0.,12.0,0.,12.0,0.,12.0
1979-07-16 09:15:00.880 ,7,1,0.,12.0,0.,12.0,0.,12.0,0.,12.0
1979-07-16 09:15:12.880 ,4,1,0.,12.0,0.,12.0,0.,12.0,0.,12.0
1979-07-16 09:15:24.880 ,4,1,0.,12.0,0.,12.0,0.,12.0,0.,12.0
1979-07-16 09:15:36.880 ,0,1,0.,12.0,0.,12.0,0.,12.0,0.,12.0
1979-07-16 09:15:48.880 ,0,1,0.,12.0,0.,12.0,0.,12.0,0.,12.0
1979-07-16 09:16:00.880 ,3,1,0.,12.0,0.,12.0,0.,12.0,0.,12.0
1979-07-16 09:16:12.880 ,3,1,0.,12.0,0.,12.0,0.,12.0,0.,12.0
1979-07-16 09:16:24.880 ,5,1,0.,12.0,0.,12.0,0.,12.0,0.,12.0
1979-07-16 09:16:36.880 ,5,1,,0,,0,,0,,0
1979-07-16 09:16:48.880 ,4,1,0.,12.0,0.,12.0,0.,12.0,0.,12.0
1979-07-16 09:17:00.880 ,4,1,0.,12.0,0.,12.0,0.,12.0,0.,12.0
1979-07-16 09:17:12.880 ,2,1,0.,12.0,0.,12.0,0.,12.0,0.,12.0
1979-07-16 09:17:24.880 ,2,1,,0,,0,,0,,0
1979-07-16 09:17:36.880 ,0,0,0.,12.0,0.,12.0,0.,12.0,0.,12.0
1979-07-16 09:17:48.880 ,0,0,0.,12.0,0.,12.0,0.,12.0,0.,12.0
1979-07-16 09:18:00.880 ,0,0,0.,12.0,0.,12.0,0.,12.0,0.,12.0
1979-07-16 09:18:12.880 ,0,0,0.,12.0,0.,12.0,0.,12.0,0.,12.0
1979-07-16 09:18:24.870 ,5,1,0.,12.0,0.,12.0,0.,12.0,0.,12.0
1979-07-16 09:18:36.870 ,5,1,0.,12.0,0.,12.0,0.,12.0,0.,12.0
1979-07-16 09:18:48.870 ,5,0,0.,12.0,0.,12.0,0.,12.0,0.,12.0
1979-07-16 09:19:00.870 ,5,0,0.,12.0,0.,12.0,0.,12.0,0.,12.0
1979-07-16 09:19:12.870 ,4,1,0.,12.0,0.,12.0,0.,12.0,0.,12.0
1979-07-16 09:19:24.870 ,4,1,0.,12.0,0.,12.0,0.,12.0,0.,12.0
1979-07-16 09:19:36.870 ,4,0,0.,12.0,0.,12.0,0.,12.0,0.,12.0
1979-07-16 09:19:48.870 ,4,0,0.,12.0,0.,12.0,0.,12.0,0.,12.0
1979-07-16 09:20:00.870 ,3,1,0.,12.0,0.,12.0,0.,12.0,0.,12.0
1979-07-16 09:20:12.870 ,3,1,0.,12.0,0.,12.0,0.,12.0,0.,12.0
1979-07-16 09:20:24.870 ,3,0,0.,12.0,0.,12.0,0.,12.0,0.,12.0
1979-07-16 09:20:36.870 ,3,0,0.,12.0,0.,12.0,0.,12.0,0.,12.0
1979-07-16 09:20:48.870 ,2,1,0.,12.0,0.,12.0,0.,12.0,0.,12.0
1979-07-16 09:21:00.870 ,2,1,0.,12.0,0.,12.0,0.,12.0,0.,12.0
1979-07-16 09:21:12.870 ,2,0,0.,12.0,0.,12.0,0.,12.0,0.,12.0
1979-07-16 09:21:24.870 ,2,0,0.,12.0,0.,12.0,0.,12.0,0.,12.0
1979-07-16 09:21:36.870 ,1,1,0.,12.0,0.,12.0,0.,12.0,0.,12.0
1979-07-16 09:21:48.870 ,1,1,0.,12.0,0.,12.0,0.,12.0,0.,12.0
1979-07-16 09:22:00.870 ,1,0,0.,12.0,0.,12.0,0.,12.0,0.,12.0
1979-07-16 09:22:12.870 ,1,0,0.,12.0,0.,12.0,0.,12.0,0.,12.0
1979-07-16 09:22:24.870 ,0,1,0.,12.0,0.,12.0,0.,12.0,0.,12.0
1979-07-16 09:22:36.870 ,0,1,0.,12.0,0.,12.0,0.,12.0,0.,12.0
1979-07-16 09:22:48.870 ,0,0,0.,12.0,0.,12.0,0.,12.0,0.,12.0
1979-07-16 09:23:00.870 ,0,0,0.,12.0,0.,12.0,0.,12.0,0.,12.0
1979-07-16 09:23:12.870 ,0,1,0.,12.0,0.,12.0,0.,12.0,0.,12.0
1979-07-16 09:23:24.870 ,0,1,0.,12.0,0.,12.0,0.,12.0,0.,12.0
1979-07-16 09:23:36.870 ,0,0,0.,12.0,0.,12.0,0.,12.0,0.,12.0
1979-07-16 09:23:48.870 ,0,0,1.,12.0,0.,12.0,0.,12.0,0.,12.0
1979-07-16 09:24:00.870 ,1,1,0.,12.0,0.,12.0,0.,12.0,0.,12.0
1979-07-16 09:24:12.870 ,1,1,0.,12.0,0.,12.0,0.,12.0,0.,12.0
1979-07-16 09:24:24.870 ,1,0,0.,12.0,0.,12.0,0.,12.0,0.,12.0
1979-07-16 09:24:36.870 ,1,0,0.,12.0,0.,12.0,0.,12.0,0.,12.0
1979-07-16 09:24:48.870 ,2,1,0.,12.0,0.,12.0,0.,12.0,0.,12.0
1979-07-16 09:25:00.870 ,2,1,0.,12.0,0.,12.0,0.,12.0,0.,12.0
1979-07-16 09:25:12.870 ,2,0,0.,12.0,0.,12.0,0.,12.0,0.,12.0
1979-07-16 09:25:24.870 ,2,0,0.,12.0,0.,12.0,0.,12.0,0.,12.0
1979-07-16 09:25:36.870 ,3,1,0.,12.0,0.,12.0,0.,12.0,0.,12.0
1979-07-16 09:25:48.870 ,3,1,0.,12.0,0.,12.0,0.,12.0,0.,12.0
1979-07-16 09:26:00.870 ,3,0,0.,12.0,0.,12.0,0.,12.0,0.,12.0
1979-07-16 09:26:12.870 ,3,0,0.,12.0,0.,12.0,0.,12.0,0.,12.0
1979-07-16 09:26:24.870 ,4,1,0.,12.0,0.,12.0,0.,12.0,0.,12.0
1979-07-16 09:26:36.870 ,4,1,0.,12.0,0.,12.0,0.,12.0,0.,12.0
1979-07-16 09:26:48.870 ,4,0,0.,12.0,0.,12.0,0.,12.0,0.,12.0
1979-07-16 09:27:00.870 ,4,0,0.,12.0,0.,12.0,0.,12.0,0.,12.0
1979-07-16 09:27:12.870 ,5,1,0.,12.0,0.,12.0,0.,12.0,0.,12.0
1979-07-16 09:27:24.870 ,5,1,0.,12.0,0.,12.0,0.,12.0,0.,12.0
1979-07-16 09:27:36.870 ,5,0,0.,12.0,0.,12.0,0.,12.0,0.,12.0
1979-07-16 09:27:48.870 ,5,0,0.,12.0,0.,12.0,0.,12.0,0.,12.0
1979-07-16 09:28:00.870 ,6,1,0.,12.0,0.,12.0,0.,12.0,0.,12.0
1979-07-16 09:28:12.870 ,6,1,0.,12.0,0.,12.0,0.,12.0,0.,12.0
1979-07-16 09:28:24.870 ,6,0,0.,12.0,0.,12.0,0.,12.0,0.,12.0
1979-07-16 09:28:36.870 ,6,0,0.,12.0,0.,12.0,0.,12.0,0.,12.0
1979-07-16 09:28:48.870 ,7,1,0.,12.0,0.,12.0,0.,12.0,0.,12.0
1979-07-16 09:29:00.870 ,7,1,0.,12.0,0.,12.0,0.,12.0,0.,12.0
1979-07-16 09:29:12.870 ,7,0,0.,12.0,0.,12.0,0.,12.0,0.,12.0
1979-07-16 09:29:24.870 ,7,0,0.,12.0,0.,12.0,0.,12.0,0.,12.0
1979-07-16 09:29:36.870 ,7,1,0.,12.0,0.,12.0,0.,12.0,0.,12.0
1979-07-16 09:29:48.870 ,7,1,0.,12.0,0.,12.0,0.,12.0,0.,12.0
1979-07-16 09:30:00.870 ,7,0,0.,12.0,0.,12.0,0.,12.0,0.,12.0
1979-07-16 09:30:12.870 ,7,0,0.,12.0,0.,12.0,0.,12.0,0.,12.0
1979-07-16 09:30:24.870 ,6,1,0.,12.0,0.,12.0,0.,12.0,0.,12.0
1979-07-16 09:30:36.870 ,6,1,0.,12.0,0.,12.0,0.,12.0,0.,12.0
1979-07-16 09:30:48.870 ,6,0,0.,12.0,0.,12.0,0.,12.0,0.,12.0
1979-07-16 09:31:00.870 ,6,0,0.,12.0,0.,12.0,0.,12.0,0.,12.0
1979-07-16 09:31:12.870 ,5,1,0.,12.0,0.,12.0,0.,12.0,0.,12.0
1979-07-16 09:31:24.870 ,5,1,0.,12.0,0.,12.0,0.,12.0,0.,12.0
1979-07-16 09:31:36.870 ,5,0,0.,12.0,0.,12.0,0.,12.0,0.,12.0
1979-07-16 09:31:48.870 ,5,0,0.,12.0,0.,12.0,0.,12.0,0.,12.0
1979-07-16 09:32:00.870 ,4,1,0.,12.0,0.,12.0,0.,12.0,0.,12.0
1979-07-16 09:32:12.870 ,4,1,0.,12.0,0.,12.0,0.,12.0,0.,12.0
1979-07-16 09:32:24.870 ,4,0,0.,12.0,0.,12.0,0.,12.0,0.,12.0
1979-07-16 09:32:36.870 ,4,0,0.,12.0,0.,12.0,0.,12.0,0.,12.0
1979-07-16 09:32:48.870 ,3,1,0.,12.0,0.,12.0,0.,12.0,0.,12.0
1979-07-16 09:33:00.870 ,3,1,0.,12.0,0.,12.0,0.,12.0,0.,12.0
1979-07-16 09:33:12.870 ,3,0,,0,,0,,0,,0
1979-07-16 09:33:24.870 ,3,0,0.,12.0,0.,12.0,0.,12.0,0.,12.0
1979-07-16 09:33:36.870 ,2,1,0.,12.0,0.,12.0,0.,12.0,0.,12.0
1979-07-16 09:33:48.870 ,2,1,0.,12.0,0.,12.0,0.,12.0,0.,12.0
1979-07-16 09:34:00.870 ,2,0,0.,12.0,0.,12.0,0.,12.0,0.,12.0
1979-07-16 09:34:12.870 ,2,0,0.,12.0,0.,12.0,0.,12.0,0.,12.0
1979-07-16 09:34:24.870 ,1,1,0.,12.0,0.,12.0,0.,12.0,0.,12.0
1979-07-16 09:34:36.870 ,1,1,0.,12.0,0.,12.0,0.,12.0,0.,12.0
1979-07-16 09:34:48.870 ,1,0,0.,12.0,0.,12.0,0.,12.0,0.,12.0
1979-07-16 09:35:00.870 ,1,0,0.,12.0,0.,12.0,0.,12.0,0.,12.0
1979-07-16 09:35:12.870 ,0,1,0.,12.0,0.,12.0,0.,12.0,0.,12.0
1979-07-16 09:35:24.870 ,0,1,0.,12.0,0.,12.0,0.,12.0,0.,12.0
1979-07-16 09:35:36.870 ,0,0,0.,12.0,0.,12.0,0.,12.0,0.,12.0
1979-07-16 09:35:48.870 ,0,0,0.,12.0,0.,12.0,0.,12.0,0.,12.0
1979-07-16 09:36:00.870 ,0,1,0.,12.0,0.,12.0,0.,12.0,0.,12.0
1979-07-16 09:36:12.870 ,0,1,0.,12.0,0.,12.0,0.,12.0,0.,12.0
1979-07-16 09:36:24.870 ,0,0,0.,12.0,0.,12.0,0.,12.0,0.,12.0
1979-07-16 09:36:36.870 ,0,0,0.,12.0,0.,12.0,0.,12.0,0.,12.0
1979-07-16 09:36:48.870 ,1,1,0.,12.0,0.,12.0,0.,12.0,0.,12.0
1979-07-16 09:37:00.870 ,1,1,0.,12.0,0.,12.0,0.,12.0,0.,12.0
1979-07-16 09:37:12.870 ,1,0,0.,12.0,0.,12.0,0.,12.0,0.,12.0
1979-07-16 09:37:24.870 ,1,0,0.,12.0,0.,12.0,0.,12.0,0.,12.0
1979-07-16 09:37:36.870 ,2,1,0.,12.0,0.,12.0,0.,12.0,0.,12.0
1979-07-16 09:37:48.870 ,2,1,0.,12.0,0.,12.0,0.,12.0,0.,12.0
1979-07-16 09:38:00.870 ,2,0,0.,12.0,0.,12.0,0.,12.0,0.,12.0
1979-07-16 09:38:12.870 ,2,0,0.,12.0,0.,12.0,0.,12.0,0.,12.0
1979-07-16 09:38:24.870 ,3,1,0.,12.0,0.,12.0,0.,12.0,0.,12.0
1979-07-16 09:38:36.870 ,3,1,0.,12.0,0.,12.0,0.,12.0,0.,12.0
1979-07-16 09:38:48.870 ,3,0,0.,12.0,0.,12.0,0.,12.0,0.,12.0
1979-07-16 09:39:00.870 ,3,0,0.,12.0,0.,12.0,0.,12.0,0.,12.0
1979-07-16 09:39:12.870 ,4,1,0.,12.0,0.,12.0,0.,12.0,0.,12.0
1979-07-16 09:39:24.870 ,4,1,0.,12.0,0.,12.0,0.,12.0,0.,12.0
1979-07-16 09:39:36.870 ,4,0,0.,12.0,0.,12.0,0.,12.0,0.,12.0
1979-07-16 09:39:48.870 ,4,0,0.,12.0,0.,12.0,0.,12.0,0.,12.0
1979-07-16 09:40:00.870 ,5,1,0.,12.0,0.,12.0,0.,12.0,0.,12.0
1979-07-16 09:40:12.870 ,5,1,0.,12.0,0.,12.0,0.,12.0,0.,12.0
1979-07-16 09:40:24.870 ,5,0,0.,12.0,0.,12.0,0.,12.0,0.,12.0
1979-07-16 09:40:36.870 ,5,0,0.,12.0,0.,12.0,0.,12.0,0.,12.0
1979-07-16 09:40:48.870 ,6,1,0.,12.0,0.,12.0,0.,12.0,0.,12.0
1979-07-16 09:41:00.870 ,6,1,0.,12.0,0.,12.0,0.,12.0,0.,12.0
1979-07-16 09:41:12.870 ,6,0,0.,12.0,0.,12.0,0.,12.0,0.,12.0
1979-07-16 09:41:24.870 ,6,0,0.,12.0,0.,12.0,0.,12.0,0.,12.0
1979-07-16 09:41:36.870 ,7,1,0.,12.0,0.,12.0,0.,12.0,0.,12.0
1979-07-16 09:41:48.870 ,7,1,0.,12.0,0.,12.0,0.,12.0,0.,12.0
1979-07-16 09:42:00.870 ,7,0,0.,12.0,0.,12.0,0.,12.0,0.,12.0
1979-07-16 09:42:12.870 ,7,0,0.,12.0,0.,12.0,0.,12.0,0.,12.0
1979-07-16 09:42:24.870 ,7,1,0.,12.0,0.,12.0,0.,12.0,0.,12.0
1979-07-16 09:42:36.870 ,7,1,0.,12.0,0.,12.0,0.,12.0,0.,12.0
1979-07-16 09:42:48.870 ,7,0,0.,12.0,0.,12.0,0.,12.0,0.,12.0
1979-07-16 09:43:00.870 ,7,0,0.,12.0,0.,12.0,0.,12.0,0.,12.0
1979-07-16 09:43:12.870 ,7,0,0.,12.0,0.,12.0,0.,12.0,0.,12.0
1979-07-16 09:43:24.870 ,7,0,,0,,0,,0,,0
1979-07-16 09:43:36.870 ,6,0,0.,12.0,0.,12.0,0.,12.0,0.,12.0
1979-07-16 09:43:48.870 ,6,0,0.,12.0,0.,12.0,0.,12.0,0.,12.0
1979-07-16 09:44:00.870 ,5,1,0.,12.0,0.,12.0,0.,12.0,0.,12.0
1979-07-16 09:44:12.870 ,5,1,0.,12.0,0.,12.0,0.,12.0,0.,12.0
1979-07-16 09:44:24.870 ,5,0,0.,12.0,0.,12.0,0.,12.0,0.,12.0
1979-07-16 09:44:36.870 ,5,0,0.,12.0,0.,12.0,0.,12.0,0.,12.0
1979-07-16 09:44:48.870 ,4,1,0.,12.0,0.,12.0,0.,12.0,0.,12.0
1979-07-16 09:45:00.870 ,4,1,0.,12.0,0.,12.0,0.,12.0,0.,12.0
1979-07-16 09:45:12.870 ,4,0,0.,12.0,0.,12.0,0.,12.0,0.,12.0
1979-07-16 09:45:24.870 ,4,0,0.,12.0,0.,12.0,0.,12.0,0.,12.0
1979-07-16 09:45:36.870 ,3,1,0.,12.0,0.,12.0,0.,12.0,0.,12.0
1979-07-16 09:45:48.870 ,3,1,0.,12.0,0.,12.0,0.,12.0,0.,12.0
1979-07-16 09:46:00.870 ,3,0,0.,12.0,0.,12.0,0.,12.0,0.,12.0
1979-07-16 09:46:12.870 ,3,0,0.,12.0,0.,12.0,0.,12.0,0.,12.0
1979-07-16 09:46:24.870 ,2,1,0.,12.0,0.,12.0,0.,12.0,0.,12.0
1979-07-16 09:46:36.870 ,2,1,0.,12.0,0.,12.0,0.,12.0,0.,12.0
1979-07-16 09:46:48.870 ,2,0,0.,12.0,0.,12.0,0.,12.0,0.,12.0
1979-07-16 09:47:00.870 ,2,0,0.,12.0,0.,12.0,0.,12.0,0.,12.0
1979-07-16 09:47:12.870 ,1,1,0.,12.0,0.,12.0,0.,12.0,0.,12.0
1979-07-16 09:47:24.870 ,1,1,0.,12.0,0.,12.0,0.,12.0,0.,12.0
1979-07-16 09:47:36.870 ,1,0,0.,12.0,0.,12.0,0.,12.0,0.,12.0
1979-07-16 09:47:48.870 ,1,0,0.,12.0,0.,12.0,0.,12.0,0.,12.0
1979-07-16 09:48:00.870 ,0,0,0.,12.0,0.,12.0,0.,12.0,0.,12.0
1979-07-16 09:48:12.870 ,0,0,0.,12.0,0.,12.0,0.,12.0,0.,12.0
1979-07-16 09:48:24.870 ,0,0,0.,12.0,0.,12.0,0.,12.0,0.,12.0
1979-07-16 09:48:36.870 ,0,0,0.,12.0,0.,12.0,0.,12.0,0.,12.0
1979-07-16 09:48:48.870 ,0,1,0.,12.0,0.,12.0,0.,12.0,0.,12.0
1979-07-16 09:49:00.870 ,0,1,0.,12.0,0.,12.0,0.,12.0,0.,12.0
1979-07-16 09:49:12.870 ,0,0,0.,12.0,0.,12.0,0.,12.0,0.,12.0
1979-07-16 09:49:24.870 ,0,0,0.,12.0,0.,12.0,0.,12.0,0.,12.0
1979-07-16 09:49:36.870 ,1,1,0.,12.0,0.,12.0,0.,12.0,0.,12.0
1979-07-16 09:49:48.870 ,1,1,0.,12.0,0.,12.0,0.,12.0,0.,12.0
1979-07-16 09:50:00.870 ,1,0,0.,12.0,0.,12.0,0.,12.0,0.,12.0
1979-07-16 09:50:12.870 ,1,0,,0,,0,,0,,0
1979-07-16 09:50:24.870 ,2,1,0.,12.0,0.,12.0,0.,12.0,0.,12.0
1979-07-16 09:50:36.870 ,2,1,0.,12.0,0.,12.0,0.,12.0,0.,12.0
1979-07-16 09:50:48.870 ,2,0,0.,12.0,0.,12.0,0.,12.0,0.,12.0
1979-07-16 09:51:00.870 ,2,0,0.,12.0,0.,12.0,0.,12.0,0.,12.0
1979-07-16 09:51:12.870 ,3,1,0.,12.0,0.,12.0,0.,12.0,0.,12.0
1979-07-16 09:51:24.870 ,3,1,0.,12.0,0.,12.0,0.,12.0,0.,12.0
1979-07-16 09:51:36.870 ,3,0,0.,12.0,0.,12.0,0.,12.0,0.,12.0
1979-07-16 09:51:48.870 ,3,0,0.,12.0,0.,12.0,0.,12.0,0.,12.0
1979-07-16 09:52:00.870 ,4,1,0.,12.0,0.,12.0,0.,12.0,0.,12.0
1979-07-16 09:52:12.870 ,4,1,0.,12.0,0.,12.0,0.,12.0,0.,12.0
1979-07-16 09:52:24.870 ,4,0,0.,12.0,0.,12.0,0.,12.0,0.,12.0
1979-07-16 09:52:36.870 ,4,0,0.,12.0,0.,12.0,0.,12.0,0.,12.0
1979-07-16 09:52:48.870 ,5,1,0.,12.0,0.,12.0,0.,12.0,0.,12.0
1979-07-16 09:53:00.870 ,5,1,0.,12.0,0.,12.0,0.,12.0,0.,12.0
1979-07-16 09:53:12.870 ,5,0,0.,12.0,0.,12.0,0.,12.0,0.,12.0
1979-07-16 09:53:24.870 ,5,0,0.,12.0,0.,12.0,0.,12.0,0.,12.0
1979-07-16 09:53:36.870 ,6,1,0.,12.0,0.,12.0,0.,12.0,0.,12.0
1979-07-16 09:53:48.870 ,6,1,0.,12.0,0.,12.0,0.,12.0,0.,12.0
1979-07-16 09:54:00.870 ,6,0,0.,12.0,0.,12.0,0.,12.0,0.,12.0
1979-07-16 09:54:12.870 ,6,0,0.,12.0,0.,12.0,0.,12.0,0.,12.0
1979-07-16 09:54:24.870 ,7,0,0.,12.0,0.,12.0,0.,12.0,0.,12.0
1979-07-16 09:54:36.870 ,7,0,0.,12.0,0.,12.0,0.,12.0,0.,12.0
1979-07-16 09:54:48.870 ,7,0,0.,12.0,0.,12.0,0.,12.0,0.,12.0
1979-07-16 09:55:00.870 ,7,0,0.,12.0,0.,12.0,0.,12.0,0.,12.0
1979-07-16 09:55:12.870 ,4,1,0.,12.0,0.,12.0,0.,12.0,0.,12.0
1979-07-16 09:55:24.870 ,4,1,0.,12.0,0.,12.0,0.,12.0,0.,12.0
1979-07-16 09:55:36.870 ,0,1,0.,12.0,0.,12.0,0.,12.0,0.,12.0
1979-07-16 09:55:48.870 ,0,1,0.,12.0,0.,12.0,0.,12.0,0.,12.0
1979-07-16 09:56:00.870 ,3,1,0.,12.0,0.,12.0,0.,12.0,0.,12.0
1979-07-16 09:56:12.870 ,3,1,0.,12.0,0.,12.0,0.,12.0,0.,12.0
1979-07-16 09:56:24.870 ,7,1,0.,12.0,0.,12.0,0.,12.0,0.,12.0
1979-07-16 09:56:36.870 ,7,1,0.,12.0,0.,12.0,0.,12.0,0.,12.0
1979-07-16 09:56:48.870 ,4,1,0.,12.0,0.,12.0,0.,12.0,0.,12.0
1979-07-16 09:57:00.870 ,4,1,0.,12.0,0.,12.0,0.,12.0,0.,12.0
1979-07-16 09:57:12.870 ,0,1,0.,12.0,0.,12.0,0.,12.0,0.,12.0
1979-07-16 09:57:24.870 ,0,1,0.,12.0,0.,12.0,0.,12.0,0.,12.0
1979-07-16 09:57:36.870 ,3,1,0.,12.0,0.,12.0,0.,12.0,0.,12.0
1979-07-16 09:57:48.870 ,3,1,0.,12.0,0.,12.0,0.,12.0,0.,12.0
1979-07-16 09:58:00.870 ,7,1,0.,12.0,0.,12.0,0.,12.0,0.,12.0
1979-07-16 09:58:12.870 ,7,1,0.,12.0,0.,12.0,0.,12.0,0.,12.0
1979-07-16 09:58:24.870 ,4,1,0.,12.0,0.,12.0,0.,12.0,0.,12.0
1979-07-16 09:58:36.870 ,4,1,0.,12.0,0.,12.0,0.,12.0,0.,12.0
1979-07-16 09:58:48.870 ,0,1,0.,12.0,0.,12.0,0.,12.0,0.,12.0
1979-07-16 09:59:00.870 ,0,1,0.,12.0,0.,12.0,0.,12.0,0.,12.0
1979-07-16 09:59:12.870 ,3,1,0.,12.0,0.,12.0,0.,12.0,0.,12.0
1979-07-16 09:59:24.870 ,3,1,0.,12.0,0.,12.0,0.,12.0,0.,12.0
1979-07-16 09:59:36.870 ,7,1,0.,12.0,0.,12.0,0.,12.0,0.,12.0
1979-07-16 09:59:48.870 ,7,1,0.,12.0,0.,12.0,0.,12.0,0.,12.0
1979-07-16 10:00:00.870 ,4,1,0.,12.0,0.,12.0,0.,12.0,0.,12.0
1979-07-16 10:00:12.870 ,4,1,0.,12.0,0.,12.0,0.,12.0,0.,12.0
1979-07-16 10:00:24.870 ,0,1,0.,12.0,0.,12.0,0.,12.0,0.,12.0
1979-07-16 10:00:36.870 ,0,1,0.,12.0,0.,12.0,0.,12.0,0.,12.0
1979-07-16 10:00:48.870 ,3,1,0.,12.0,0.,12.0,0.,12.0,0.,12.0
1979-07-16 10:01:00.870 ,3,1,0.,12.0,0.,12.0,0.,12.0,0.,12.0
1979-07-16 10:01:12.870 ,7,1,0.,12.0,0.,12.0,0.,12.0,0.,12.0
1979-07-16 10:01:24.870 ,7,1,0.,12.0,0.,12.0,0.,12.0,0.,12.0
1979-07-16 10:01:36.870 ,4,1,0.,12.0,0.,12.0,0.,12.0,0.,12.0
1979-07-16 10:01:48.870 ,4,1,0.,12.0,0.,12.0,0.,12.0,0.,12.0
1979-07-16 10:02:00.870 ,0,1,0.,12.0,0.,12.0,0.,12.0,0.,12.0
1979-07-16 10:02:12.870 ,0,1,0.,12.0,0.,12.0,0.,12.0,0.,12.0
1979-07-16 10:02:24.870 ,3,1,0.,12.0,0.,12.0,0.,12.0,0.,12.0
1979-07-16 10:02:36.870 ,3,1,0.,12.0,0.,12.0,0.,12.0,0.,12.0
1979-07-16 10:02:48.870 ,7,1,0.,12.0,0.,12.0,0.,12.0,0.,12.0
1979-07-16 10:03:00.870 ,7,1,0.,12.0,0.,12.0,0.,12.0,0.,12.0
1979-07-16 10:03:12.870 ,4,1,0.,12.0,0.,12.0,0.,12.0,0.,12.0
1979-07-16 10:03:24.870 ,4,1,0.,12.0,0.,12.0,0.,12.0,0.,12.0
1979-07-16 10:03:36.870 ,0,1,0.,12.0,0.,12.0,0.,12.0,0.,12.0
1979-07-16 10:03:48.870 ,0,1,0.,12.0,0.,12.0,0.,12.0,0.,12.0
1979-07-16 10:04:00.870 ,3,1,0.,12.0,0.,12.0,0.,12.0,0.,12.0
1979-07-16 10:04:12.870 ,3,1,0.,12.0,0.,12.0,0.,12.0,0.,12.0
1979-07-16 10:04:24.870 ,7,1,0.,12.0,0.,12.0,0.,12.0,0.,12.0
1979-07-16 10:04:36.870 ,7,1,0.,12.0,0.,12.0,0.,12.0,0.,12.0
1979-07-16 10:04:48.870 ,4,1,0.,12.0,0.,12.0,0.,12.0,0.,12.0
1979-07-16 10:05:00.870 ,4,1,0.,12.0,0.,12.0,0.,12.0,0.,12.0
1979-07-16 10:05:12.870 ,0,1,0.,12.0,0.,12.0,0.,12.0,0.,12.0
1979-07-16 10:05:24.870 ,0,1,0.,12.0,0.,12.0,0.,12.0,0.,12.0
1979-07-16 10:05:36.870 ,0,0,0.,12.0,0.,12.0,0.,12.0,0.,12.0
1979-07-16 10:05:48.870 ,0,0,0.,12.0,0.,12.0,0.,12.0,0.,12.0
1979-07-16 10:06:00.870 ,0,0,0.,12.0,0.,12.0,0.,12.0,0.,12.0
1979-07-16 10:06:12.870 ,0,0,0.,12.0,0.,12.0,0.,12.0,0.,12.0
1979-07-16 10:06:24.870 ,5,1,0.,12.0,0.,12.0,0.,12.0,0.,12.0
1979-07-16 10:06:36.870 ,5,1,1.,12.0,0.,12.0,0.,12.0,0.,12.0
1979-07-16 10:06:48.870 ,5,0,0.,12.0,0.,12.0,0.,12.0,0.,12.0
1979-07-16 10:07:00.870 ,5,0,0.,12.0,0.,12.0,0.,12.0,0.,12.0
1979-07-16 10:07:12.870 ,4,1,0.,12.0,0.,12.0,0.,12.0,0.,12.0
1979-07-16 10:07:24.870 ,4,1,0.,12.0,0.,12.0,0.,12.0,0.,12.0
1979-07-16 10:07:36.870 ,4,0,0.,12.0,0.,12.0,0.,12.0,0.,12.0
1979-07-16 10:07:48.870 ,4,0,0.,12.0,0.,12.0,0.,12.0,0.,12.0
1979-07-16 10:08:00.870 ,3,1,0.,12.0,0.,12.0,0.,12.0,0.,12.0
1979-07-16 10:08:12.870 ,3,1,0.,12.0,0.,12.0,0.,12.0,0.,12.0
1979-07-16 10:08:24.870 ,3,0,0.,12.0,0.,12.0,0.,12.0,0.,12.0
1979-07-16 10:08:36.870 ,3,0,0.,12.0,0.,12.0,0.,12.0,0.,12.0
1979-07-16 10:08:48.870 ,2,1,0.,12.0,0.,12.0,0.,12.0,0.,12.0
1979-07-16 10:09:00.870 ,2,1,0.,12.0,0.,12.0,0.,12.0,0.,12.0
1979-07-16 10:09:12.870 ,2,0,0.,12.0,0.,12.0,0.,12.0,0.,12.0
1979-07-16 10:09:24.870 ,2,0,0.,12.0,0.,12.0,0.,12.0,0.,12.0
1979-07-16 10:09:36.870 ,1,1,0.,12.0,0.,12.0,0.,12.0,0.,12.0
1979-07-16 10:09:48.870 ,1,1,0.,12.0,0.,12.0,0.,12.0,0.,12.0
1979-07-16 10:10:00.870 ,1,0,0.,12.0,0.,12.0,0.,12.0,0.,12.0
1979-07-16 10:10:12.870 ,1,0,1.,12.0,0.,12.0,0.,12.0,0.,12.0
1979-07-16 10:10:24.870 ,0,1,0.,12.0,0.,12.0,0.,12.0,0.,12.0
1979-07-16 10:10:36.870 ,0,1,0.,12.0,0.,12.0,0.,12.0,0.,12.0
1979-07-16 10:10:48.870 ,0,0,0.,12.0,0.,12.0,0.,12.0,0.,12.0
1979-07-16 10:11:00.870 ,0,0,0.,12.0,0.,12.0,0.,12.0,0.,12.0
1979-07-16 10:11:12.870 ,0,1,0.,12.0,0.,12.0,0.,12.0,0.,12.0
1979-07-16 10:11:24.870 ,0,1,0.,12.0,0.,12.0,0.,12.0,0.,12.0
1979-07-16 10:11:36.870 ,0,0,0.,12.0,0.,12.0,0.,12.0,0.,12.0
1979-07-16 10:11:48.870 ,0,0,0.,12.0,0.,12.0,0.,12.0,0.,12.0
1979-07-16 10:12:00.870 ,1,1,0.,12.0,0.,12.0,0.,12.0,0.,12.0
1979-07-16 10:12:12.870 ,1,1,0.,12.0,0.,12.0,0.,12.0,0.,12.0
1979-07-16 10:12:24.870 ,1,0,0.,12.0,0.,12.0,0.,12.0,0.,12.0
1979-07-16 10:12:36.870 ,1,0,0.,12.0,0.,12.0,0.,12.0,0.,12.0
1979-07-16 10:12:48.870 ,2,1,0.,12.0,0.,12.0,0.,12.0,0.,12.0
1979-07-16 10:13:00.870 ,2,1,0.,12.0,0.,12.0,0.,12.0,0.,12.0
1979-07-16 10:13:12.870 ,2,0,0.,12.0,0.,12.0,0.,12.0,0.,12.0
1979-07-16 10:13:24.870 ,2,0,0.,12.0,0.,12.0,0.,12.0,0.,12.0
1979-07-16 10:13:36.870 ,3,1,0.,12.0,0.,12.0,0.,12.0,0.,12.0
1979-07-16 10:13:48.870 ,3,1,0.,12.0,0.,12.0,0.,12.0,0.,12.0
1979-07-16 10:14:00.870 ,3,0,0.,12.0,0.,12.0,0.,12.0,0.,12.0
1979-07-16 10:14:12.870 ,3,0,0.,12.0,0.,12.0,0.,12.0,0.,12.0
1979-07-16 10:14:24.870 ,4,1,0.,12.0,0.,12.0,0.,12.0,0.,12.0
1979-07-16 10:14:36.870 ,4,1,0.,12.0,0.,12.0,0.,12.0,0.,12.0
1979-07-16 10:14:48.870 ,4,0,0.,12.0,0.,12.0,0.,12.0,0.,12.0
1979-07-16 10:15:00.870 ,4,0,0.,12.0,0.,12.0,0.,12.0,0.,12.0
1979-07-16 10:15:12.870 ,5,1,0.,12.0,0.,12.0,0.,12.0,0.,12.0
1979-07-16 10:15:24.870 ,5,1,0.,12.0,0.,12.0,0.,12.0,0.,12.0
1979-07-16 10:15:36.870 ,5,0,0.,12.0,0.,12.0,0.,12.0,0.,12.0
1979-07-16 10:15:48.870 ,5,0,0.,12.0,0.,12.0,0.,12.0,0.,12.0
1979-07-16 10:16:00.870 ,6,1,0.,12.0,0.,12.0,0.,12.0,0.,12.0
1979-07-16 10:16:12.870 ,6,1,0.,12.0,0.,12.0,0.,12.0,0.,12.0
1979-07-16 10:16:24.870 ,6,0,0.,12.0,0.,12.0,0.,12.0,0.,12.0
1979-07-16 10:16:36.870 ,6,0,0.,12.0,0.,12.0,0.,12.0,0.,12.0
1979-07-16 10:16:48.870 ,7,1,0.,12.0,0.,12.0,0.,12.0,0.,12.0
1979-07-16 10:17:00.870 ,7,1,0.,12.0,0.,12.0,0.,12.0,0.,12.0
1979-07-16 10:17:12.870 ,7,0,0.,12.0,0.,12.0,0.,12.0,0.,12.0
1979-07-16 10:17:24.870 ,7,0,0.,12.0,0.,12.0,0.,12.0,0.,12.0
1979-07-16 10:17:36.870 ,7,1,0.,12.0,0.,12.0,0.,12.0,0.,12.0